Find Starlink 5799

NORAD ID: 56002 Int'l Des: 2023-042 Owner: SPXS Country: US Constellation: starlink operational
LEOCIRCULAR

当前视图

正在加载3D地球...

About Starlink 5799

Starlink 5799 (NORAD 56002) is a starlink constellation satellite (v1.5) launched Mar 24, 2023 by SPXS of US. It operates in LEO, CIRCULAR orbit with a mass of 305.00 kg.

关于 Starlink 5799

正在加载描述...

即将过境

Passes for default location (London). Set your location on the main map for personalized predictions.

高度历史

Loading altitude history...

两行轨道根数

1 56002U 23042S 26170.18825255 .00000628 00000-0 32351-4 0 9990
2 56002 43.0011 206.2774 0001303 269.9514 90.1188 15.27575472178395
Epoch: Jun 19, 2026 • Age: 12 hours

当前状态

高度 483.0 km
速度 7.63 km/s
星下点 20.89°N, 150.64°W
发射日期 Mar 24, 2023
运行时间 3.2 years
类型 internet

技术详情

分类 Payload
质量 305.00 kg
干质量 290.00 kg
总质量 305.00 kg
长度 0.20 m
直径 2.80 m
跨度 9.00 m
形状 Box + pan
制造商 SPXS
平台类型 Starlink
阶段状态 In Orbit
所有者/国家 SPXS/US

Most Searched